Время (UTC), дата Ветер
(°,м/с) 
Видим.   Явления Облачность Т
(°С)
Тd
(°С)
f(%) Тe
(°С)
Pmin
(гПа)
dP
(гПа)
Po
(мм)
O2
(г/м3)
Тmin Tmax R s Состояние
почвы
00 01.12.10 270 (З) 10 км    4/0 средняя 
[Ac trans]
+3.9 -3.7 58 +1  1013.3  1.6  753  300           
03 01.12.10 290 (З) 10 км    5/0 средняя 
[Ac trans]
+0.6 -4.8 67 -3  1014.9  1.4  754  304           
06 01.12.10 310 (СЗ) 10 км    8/0 средняя, верхняя 
[Ac trans|Ci fib]
-1.4 -7 66 -5  1017.2  756  307  -1.4         
09 01.12.10 330 (СЗ) 10 км    10/0 средняя 
[Ac und]
-2.6 -7.9 67 -6  1019.1  1.9  757  309           
12 01.12.10 330 (СЗ) 10 км    9/0 средняя, верхняя 
[Ac trans|Ci fib]
-2.9 -8.7 64 -5  1020.7  1.5  758  310           
15 01.12.10 040 (СВ) 10 км    9/0 средняя, верхняя 
[Ac trans|Ci fib]
-4 -8.5 71 -6  1022  1.3  759  311           
18 01.12.10 060 (СВ) 10 км    9/0 средняя 
[Ac trans]
-5.3 -9.4 73 -9  1022.2  0.1  759  313    +0.6       
21 01.12.10 050 (СВ) 10 км    10/0 средняя 
[Ac und]
-5 -9.6 70 -9  1022.1  759  313           
00 02.12.10 070 (В) 10 км  слаб. снег  10/6 400 м кучево-дожд., средняя 
[Cb calv|Ac und]
-5.1 -9.2 73 -9  1021.8  -0.2  759  313           
03 02.12.10 070 (В) 1100 м  ливневой снег  10/8 100 м кучево-дожд., средняя 
[Cb calv|Ac und]
-6.4 -7.7 91 -12  1021.8  -0.1  759  314           
06 02.12.10 060 (СВ) 2000 м  ливневой снег  10/8 100 м кучево-дожд., средняя 
[Cb calv|As op]
-7.2 -8.6 90 -13  1023  1.1  760  315  -7.2    0.7     
09 02.12.10 070 (В) 10 км  слаб. ливневой дождь [диам. гололёда 1 мм]  10/5 240 м кучево-дожд., средняя 
[Cb calv|As op]
-6.5 -8.1 88 -13  1023.6  0.6  760  315           
12 02.12.10 080 (В) 11-15{15}  3000 м  слаб. переохл. дождь (гололёд){ливн. осадки} [диам. гололёда 1 мм]  10/6 240 м средняя 
[Frnb|As op]
-7 -8.3 90 -14  1024.1  0.5  761  316           
15 02.12.10 080 (В) 10{15}  10 км  слаб. переохл. дождь (гололёд) [диам. гололёда 2 мм]  10/8 210 м средняя 
[Frnb|As op]
-6.6 -7.7 92 -13  1025  0.9  761  315           
18 02.12.10 080 (В) 10-15{16}  1500 м  ливневой дождь [диам. гололёда 3 мм]  10/8 120 м кучево-дожд., средняя 
[Cb calv|As op]
-6.5 -7.6 92 -13  1026.1  762  315    -6.3     
21 02.12.10 080 (В) 10{15}  4000 м  слаб. переохл. дождь (гололёд){ливн. осадки} [диам. гололёда 3 мм]  10/8 210 м средняя 
[Frnb|As op]
-6.2 -6.9 95 -13  1026.2  0.1  762  315           
00 03.12.10 090 (В) 11-15{15}  2500 м  слаб. переохл. дождь (гололёд){ливн. осадки} [диам. гололёда 3 мм]  10/8 150 м средняя, верхняя 
[Frnb|As op|Ci fib]
-5.8 -6.4 95 -12  1025.9  -0.3  762  314           
03 03.12.10 090 (В) 10{15}  4000 м  дымка{ливн. осадки} [диам. гололёда 3 мм]  10/6 150 м средняя 
[Frnb|As op]
-4.8 -5.3 96 -11  1024.6  -1.3  761  313           
06 03.12.10 090 (В) 4000 м  слаб. ливневой дождь [диам. гололёда 9 мм]  10/6 150 м кучево-дожд., средняя 
[Cb calv|As op]
-2 -2.4 97 -6  1024.2  -0.2  761  309  -6.7       
09 03.12.10 090 (В) 2000 м  переохл. дождь (гололёд){ливн. осадки} [диам. гололёда 13 мм]  10/8 100 м средняя 
[Frnb|As op]
-0.5 -0.8 98 -3  1024.3  0.1  761  307           
12 03.12.10 070 (В) 1500 м  дымка{ливн. осадки, дождь} [диам. гололёда 14 мм]  10/8 60 м средняя 
[Frnb|As op]
-0.1 -0.3 99 -2  1023.8  -0.5  761  307           
15 03.12.10 070 (В) 0300 м  туман [диам. гололёда 14 мм]  ?/?  
-0.1 -0.2 99 -2  1024.5  0.6  761  307           
18 03.12.10 080 (В) 0300 м  туман [диам. гололёда 13 мм]  ?/?  
+0.2 +0.2 100 -2  1024.5  761  306    +0     
21 03.12.10 080 (В) 0100 м  туман [диам. гололёда 12 мм]  ?/?  
+0.2 +0.2 100 -2  1023.5  -1  761  306           
00 04.12.10 090 (В) 0100 м  туман [диам. гололёда 12 мм]  ?/?  
+0.3 +0.3 100 -3  1022.9  -0.6  760  306           
03 04.12.10 080 (В) 0100 м  туман [диам. гололёда 3 мм]  ?/?  
+0 +0 100 -3  1021.3  -1.5  759  306           
06 04.12.10 080 (В) 0200 м  туман [диам. гололёда 3 мм]  ?/?  
+0.1 +0 99 -2  1021.7  0.4  759  306  -0.1         
09 04.12.10 090 (В) 0300 м  туман  ?/?  
+1.1 +1.1 100 -2  1019.6  -2.1  758  304           
12 04.12.10 070 (В) 0600 м  туман  ?/?  
+1.9 +1.7 99 -1  1017.9  -1.6  756  302           
15 04.12.10 080 (В) 4000 м  дымка{туман}  9/4 100 м средняя, верхняя 
[St|Ac trans|Ci fib]
+2.4 +1.8 96 1016.7  -1.2  756  302           
18 04.12.10 080 (В) 4000 м  дымка{туман}  8/8 60 м 
[St]
+3.4 +2.9 97 +1  1015  -1.7  754  300    +2.4       
21 04.12.10 090 (В) 2000 м  дымка  8/5 60 м средняя 
[St|Ac trans]
+4.8 +4.5 98 +2  1013.3  -1.6  753  297           
00 05.12.10 090 (В) 0100 м  туман  ?/?  
+5 +4.8 99 +3  1012.1  -1.2  752  297           
03 05.12.10 090 (В) 0100 м  туман  ?/?  
+6 +5.8 99 +4  1011.4  -0.6  752  295           
06 05.12.10 070 (В) 0200 м  туман  ?/?  
+6 +5.8 99 +4  1010.1  -1.3  751  295  +2.3         
09 05.12.10 090 (В) 1200 м  дымка{туман}  9/5 150 м верхняя 
[St|Ci sp]
+8.2 +8 99 +7  1009.1  -0.9  750  292           
12 05.12.10 140 (ЮВ) 10 км  {туман}  9/0 средняя, верхняя 
[Ac trans|Ci sp]
+11.1 +8.3 83 +11  1008.1  -0.9  749  289           
15 05.12.10 тихо ()   4000 м  дымка  9/0 средняя, верхняя 
[Ac trans|Ci sp]
+8.4 +7.4 93 +8  1008.4  0.2  750  292           
18 05.12.10 180 (Ю) 0100 м  туман  ?/?  
+8.8 +8.8 100 +9  1009.4  750  291    +11.2       
21 05.12.10 260 (З) 0500 м  слаб. морось{туман}  ?/?  
+7.1 +7.1 100 +6  1011.3  1.8  752  294           
00 06.12.10 310 (СЗ) 2000 м  дымка{морось, туман}  10/10 100 м 
[St]
+4.6 +4.4 99 +2  1013.1  1.7  753  298           
03 06.12.10 310 (СЗ) 10 км    10/8 240 м средняя 
[Sc|Ac und]
+3.1 +1 86 +1  1015.3  2.1  755  300           
06 06.12.10 320 (СЗ) 10 км    10/10 360 м 
[Sc]
+1.6 -0.3 87 1018.4  757  303  +1.6    0.0     
09 06.12.10 330 (СЗ) 10 км    10/10 360 м 
[Sc]
+0.4 -1.9 84 -2  1019.8  1.4  758  305           
12 06.12.10 320 (СЗ) 10 км    8/8 420 м 
[Sc]
+1.4 -1.3 82 1020.5  0.7  758  304           
15 06.12.10 330 (СЗ) 10 км    10/10 420 м 
[Sc]
+0.3 -2.3 83 -1  1022.5  1.9  760  306           
18 06.12.10 110 (В) 10 км    9/9 450 м 
[Sc]
-0.3 -3.2 81 1023.2  0.7  760  307    +3.1       
21 06.12.10 130 (ЮВ) 10 км    9/9 420 м 
[Sc]
-0.9 -3.5 83 -2  1023.5  0.3  761  308           
00 07.12.10 130 (ЮВ) 10 км    9/9 360 м 
[Sc]
-1.6 -3.6 86 -3  1023.2  -0.3  760  309           
03 07.12.10 090 (В) 10 км    9/9 300 м 
[Sc]
-2.1 -3.5 90 -4  1023  -0.2  760  309           
06 07.12.10 100 (В) 10 км    10/10 240 м 
[St]
-2.2 -3.5 91 -5  1023.6  0.5  761  309  -2.5         
09 07.12.10 090 (В) 10 км    10/8 300 м средняя 
[St|Ac und]
-1.4 -3.3 87 -4  1022.9  -0.6  760  308           
12 07.12.10 080 (В) 10 км    9/5 400 м средняя 
[Sc diur, vesp|Ac trans]
+0 -2.1 86 -3  1021.5  -1.3  759  306           
15 07.12.10 090 (В) 10 км    10/8 270 м средняя 
[St|Ac und]
+0 -1.5 90 -3  1021.7  0.1  759  306           
18 07.12.10 090 (В) 2000 м  слаб. переохл. морось (гололёд) [диам. гололёда 1 мм]  10/10 100 м 
[St]
-0.2 -0.5 98 -3  1020.4  -1.2  758  306    +0.1       
21 07.12.10 090 (В) 0300 м  слаб. морось{туман} [диам. гололёда 1 мм]  ?/?  
+0.2 +0.2 100 -2  1020.1  -0.3  758  305           
00 08.12.10 тихо ()   0400 м  туман{морось}  ?/?  
+1 +1 100 +1  1019.5  -0.6  758  304           
03 08.12.10 200 (Ю) 4000 м  дымка{туман}  10/10 150 м 
[St]
+0.9 +0.4 96 1019.7  0.2  758  304           
06 08.12.10 180 (Ю) 4000 м  дымка{туман}  10/10 150 м 
[St]
+0.8 +0.3 96 -1  1020.1  0.4  758  304  -0.3    0.0     
09 08.12.10 150 (ЮВ) 4000 м  дымка  9/0 средняя 
[Ac trans]
+4.2 +2.6 89 +3  1019.7  -0.3  758  300           
12 08.12.10 170 (Ю) 10 км    6/0 средняя 
[Ac trans]
+7.7 +3.7 76 +8  1018.4  -1.2  757  296           
15 08.12.10 140 (ЮВ) 10 км    9/0 средняя 
[Ac trans]
+6.9 +4.4 84 +8  1018.4  757  297           
18 08.12.10 тихо ()   10 км    9/0 средняя 
[Ac trans]
+6.2 +4.5 89 +6  1018.5  0.1  757  298    +8.3       
21 08.12.10 090 (В) 4000 м  дымка  9/5 540 м средняя 
[Sc|Ac trans]
+5.3 +4.3 93 +5  1018.1  -0.4  757  298           
00 09.12.10 100 (В) 4000 м  дымка  10/6 630 м средняя 
[Sc|Ac und]
+5.9 +4.9 93 +5  1017.3  -0.8  756  297           
03 09.12.10 110 (В) 4000 м  дымка  10/6 700 м средняя 
[Sc|Ac und]
+5.7 +4.6 93 +5  1017.1  -0.2  756  298           
06 09.12.10 080 (В) 4000 м  дымка  10/6 570 м средняя 
[Sc|Ac und]
+6.6 +5.6 93 +6  1015.6  -1.5  755  296  +5.3         
09 09.12.10 150 (ЮВ) 4000 м  дымка  10/5 540 м средняя 
[Sc|Ac und]
+9.3 +7.4 88 +9  1014.1  -1.4  754  292           
12 09.12.10 150 (ЮВ) 4000 м  дымка  9/5 540 м средняя 
[Sc|Ac trans]
+10.2 +8 86 +10  1012  -2  752  291           
15 09.12.10 110 (В) 4000 м  дымка  5/0 средняя, верхняя 
[Ac trans|Ci fib]
+7.2 +6.6 96 +7  1010.8  -1.3  751  294           
18 09.12.10 130 (ЮВ) 4000 м  дымка  3/0 верхняя 
[Ci fib]
+8.1 +5.9 86 +7  1009.4  -1.4  750  293    +10.5       
21 09.12.10 130 (ЮВ) 4000 м  дымка  3/0 верхняя 
[Ci fib]
+5.7 +4.7 93 +5  1007.8  -1.6  749  295           
00 10.12.10 110 (В) 4000 м  дымка  5/0 средняя, верхняя 
[Ac trans|Ci fib]
+4 +3.1 94 +2  1005.9  -2  748  296           
03 10.12.10 100 (В) 10 км  слаб. ливневой дождь  9/5 800 м кучево-дожд., средняя 
[Cb calv|Ac trans]
+3.3 +1.5 88 +1  1004  -1.9  746  297           
06 10.12.10 100 (В) 10 км  в посл. час ливневой дождь  9/6 900 м кучево-дожд., средняя 
[Cb calv|Ac trans]
+3.2 +2.2 93 +1  1003  -1  745  296  +3    0.3     
09 10.12.10 110 (В) 10 км  в посл. час ливневой дождь  9/4 600 м кучево-дожд., средняя 
[Cb calv|Ac trans]
+5.1 +3.9 92 +3  1000.7  -2.2  744  294           
12 10.12.10 110 (В) 10 км  {ливн. осадки}  9/3 600 м кучево-дожд., средняя 
[Cb calv|Ac trans]
+7.7 +5.2 84 +6  998.9  -1.7  742  290           
15 10.12.10 100 (В) 10 км    9/0 средняя 
[Ac trans]
+8 +5.6 85 +7  997.9  -1  742  289           
18 10.12.10 110 (В) 10 км    8/0 средняя 
[Ac trans]
+7.3 +5.2 86 +6  997.1  -0.8  741  290    +8.2  0.4     
21 10.12.10 130 (ЮВ) 10 км    10/8 450 м средняя 
[Sc|Ac lent]
+7.8 +5.3 84 +8  998.2  1.1  742  290           
00 11.12.10 310 (СЗ) 10 км    10/8 150 м кучево-дожд., средняя 
[Cb calv|Ac trans]
+3.3 +2.3 93 +2  1000.4  2.1  743  296           
03 11.12.10 350 (С) 10 км  в посл. час ливневой дождь  10/8 210 м кучево-дожд., средняя 
[Cb calv|Ac und]
+1 +0 93 -3  1002  1.6  745  299           
06 11.12.10 350 (С) 4000 м  слаб. ливневой дождь{морось} [диам. гололёда 1 мм]  10/8 240 м кучево-дожд., средняя 
[Cb calv|Ac und]
-0.2 -1 94 -4  1004.1  746  301  -0.2    0.5     
09 11.12.10 010 (С) 10 км  {ливн. осадки} [диам. гололёда 2 мм]  10/8 270 м кучево-дожд., средняя 
[Cb calv|Ac und]
-0.3 -1.8 89 -5  1002.9  -1.2  745  301           
12 11.12.10 010 (С) 10 км  в посл. час переохл. осадки (гололёд){ливн. осадки, морось} [диам. гололёда 3 мм]  10/10 300 м 
[St]
-0.2 -1.6 90 -5  1003  0.1  745  301           
15 11.12.10 040 (СВ) 3000 м  в посл. час переохл. осадки (гололёд){дождь, морось} [диам. гололёда 3 мм]  10/8 210 м средняя 
[Sc|Ac und]
-0.3 -1 95 -3  1002.7  -0.3  745  301           
18 11.12.10 040 (СВ) 4000 м  слаб. дождь{морось} [диам. гололёда 4 мм]  10/8 180 м средняя 
[Frnb|As op]
+0.4 -0.3 95 -3  1002.4  -0.3  745  300    +1  0.8     
21 11.12.10 050 (СВ) 4000 м  в посл. час дождь{ливн. осадки}  10/8 100 м средняя 
[Frnb|As op]
+1.4 +1 97 -2  1000.4  -1.9  743  298           
00 12.12.10 070 (В) 0100 м  туман{ливн. осадки, дождь}  ?/?  
+3.5 +3.5 100 999.5  -0.8  743  295           
03 12.12.10 090 (В) 0700 м  слаб. дождь{туман}  ?/?  
+3.8 +3.8 100 +1  1000.2  0.7  743  295           
06 12.12.10 090 (В) 0200 м  слаб. дождь{туман}  ?/?  
+3.5 +3.4 99 1000.2  743  295  -0.3    0.6     
09 12.12.10 090 (В) 0500 м  слаб. ливневой дождь  ?/?  
+3.5 +3.4 99 999.8  -0.4  743  295           
12 12.12.10 090 (В) 0300 м  туман{ливн. осадки, дождь}  ?/?  
+3.4 +3.3 99 +1  999.9  0.1  743  295           
15 12.12.10 090 (В) 0200 м  туман  ?/?  
+3 +2.9 99 +1  1001  744  296           
18 12.12.10 080 (В) 0100 м  туман  ?/?  
+2.5 +2.5 100 1001.6  0.6  744  297    +3.8     
21 12.12.10 080 (В) 0200 м  туман  ?/?  
+2 +2 100 1001.4  -0.3  744  297           
00 13.12.10 050 (СВ) 2500 м  слаб. ливневой дождь  10/8 100 м кучево-дожд., средняя 
[Cb calv|As op]
+2.1 +2.1 100 +1  1002  0.6  745  297           
03 13.12.10 тихо ()   2500 м  слаб. ливневой дождь  10/8 120 м кучево-дожд., средняя 
[Cb calv|As op]
+1.9 +1.6 98 +2  1003.5  1.5  746  298           
06 13.12.10 260 (З) 4000 м  слаб. ливневой дождь  10/8 150 м кучево-дожд., средняя 
[Cb calv|As op]
+2.2 +1.9 98 1005  1.5  747  298  +1.8    10     
09 13.12.10 250 (З) 0300 м  слаб. морось{ливн. осадки}  ?/?  
+1.4 +1.4 100 -2  1005.6  0.5  747  299           
12 13.12.10 260 (З) 2500 м  слаб. морось{ливн. осадки}  10/10 120 м 
[St]
+0.5 +0.2 98 -3  1007.7  2.1  749  301           
15 13.12.10 270 (З) 4000 м  дымка{морось}  10/8 570 м средняя 
[Sc|Ac und]
+0.1 -1.4 90 -3  1009.8  2.1  750  302           
18 13.12.10 260 (З) 4000 м  дымка{морось}  9/8 330 м средняя 
[Sc|Ac trans]
-0.9 -2.6 88 -4  1011.8  1.9  752  304    +2.5     
21 13.12.10 290 (З) 4000 м  дымка  10/10 210 м 
[St]
-2.2 -3.2 93 -6  1012.9  753  306           
00 14.12.10 330 (СЗ) 4000 м  дымка{снег}  6/6 210 м 
[St]
-3.7 -4.8 92 -3  1014.2  1.3  754  308           
03 14.12.10 350 (С) 4000 м  дымка  8/8 120 м 
[St]
-4.8 -5.4 96 -6  1013.8  -0.5  753  310           
06 14.12.10 070 (В) 2500 м  дымка{туман}  10/10 100 м 
[St]
-4.5 -4.7 98 -8  1014  0.3  753  309  -5.1    0.0     
09 14.12.10 090 (В) 4000 м  в посл. час морось  10/10 180 м 
[St]
-3.1 -3.9 94 -6  1013.9  -0.1  753  307           
12 14.12.10 070 (В) 4000 м  дымка{снег}  10/6 240 м средняя 
[St|As op]
-1.8 -3.2 90 -6  1012.4  -1.5  752  305           
15 14.12.10 070 (В) 4000 м  дымка  10/8 210 м средняя 
[St|Ac As]
-1.8 -2.8 93 -6  1012.1  -0.3  752  305           
18 14.12.10 080 (В) 4000 м  дымка{ливн. осадки}  10/8 150 м средняя 
[St|As op]
-1.5 -2.1 96 -6  1011.5  -0.6  752  305    -1.7  0.0     
21 14.12.10 080 (В) 3000 м  слаб. ливневой дождь [диам. гололёда 2 мм]  10/8 120 м кучево-дожд., средняя 
[Cb calv|As op]
-0.1 -0.6 97 -4  1011  -0.5  751  303           
00 15.12.10 090 (В) 4000 м  дымка{ливн. осадки, дождь} [диам. гололёда 1 мм]  10/8 150 м кучево-дожд., средняя 
[Cb calv|As op]
+0.6 +0.1 96 -2  1010.6  751  302           
03 15.12.10 190 (Ю) 4000 м  дымка  10/6 150 м средняя 
[St|As op]
+2.6 +1.9 95 1010.6  751  299           
06 15.12.10 220 (ЮЗ) 4000 м  дымка  10/8 180 м средняя 
[Sc diur, vesp|Ac und]
+2.8 +1.3 90 1012.1  1.5  752  300  -1.8    0.8     
09 15.12.10 240 (ЮЗ) 4000 м  дымка  10/8 300 м средняя 
[St|Ac und]
+1.3 -0.1 90 -3  1013.7  1.6  753  302           
12 15.12.10 240 (ЮЗ) 4000 м  дымка  8/8 450 м 
[Sc]
+0.1 -2.4 83 -3  1016  2.2  755  304           
15 15.12.10 250 (З) 4000 м  дымка  8/8 330 м 
[Sc]
-1.6 -3.2 89 -4  1018.3  2.2  757  307           
18 15.12.10 240 (ЮЗ) 4000 м  дымка  9/9 240 м 
[St]
-2.1 -3.2 92 -3  1019.4  1.1  757  308    +2.8       
21 15.12.10 200 (Ю) 4000 м  дымка  9/9 210 м 
[St]
-2.8 -3.5 95 -2  1020.3  0.9  758  309           
00 16.12.10 060 (СВ) 3000 м  дымка  8/8 210 м 
[St]
-4.6 -5 97 -7  1019.8  -0.6  758  311           
03 16.12.10 100 (В) 0300 м  переохл. туман [диам. изморози 1 мм]  ?/?  
-2.9 -2.9 100 -6  1018.3  -1.4  757  308           
06 16.12.10 090 (В) 2500 м  дымка{туман} [диам. изморози 1 мм]  10/8 100 м средняя 
[Sc|Ac trans]
-1.9 -2.3 97 -5  1018.4  0.1  757  307  -4.6         
09 16.12.10 160 (Ю) 4000 м  дымка  10/5 480 м средняя 
[Sc|Ac und]
+1.7 +0.2 90 1017.2  -1.1  756  303           
12 16.12.10 270 (З) 4000 м  дымка  9/8 240 м средняя 
[St|Ac trans]
+3.1 +1.5 89 +3  1016.5  -0.6  755  301           
15 16.12.10 010 (С) 4000 м  дымка  9/6 180 м средняя 
[St|Ac trans]
+0.7 -0.3 93 -1  1016.9  0.3  756  304           
18 16.12.10 060 (СВ) 4000 м  дымка  9/0 средняя 
[Ac trans]
+0.5 -0.3 94 -2  1015.1  -1.8  754  303    +3.1       
21 16.12.10 040 (СВ) 2500 м  дымка  10/8 120 м средняя 
[St|Ac und]
+1 +0.3 95 -1  1014  -1  754  302           
00 17.12.10 030 (СВ) 3000 м  слаб. дождь  10/8 150 м средняя 
[Sc|Ac und]
+0.3 -0.2 96 -3  1012.9  -1.2  753  303           
03 17.12.10 060 (СВ) 4000 м  в посл. час ливневой дождь  10/8 150 м кучево-дожд., средняя 
[Cb calv|Ac und]
+0.5 +0 97 -4  1010.2  -2.6  751  302           
06 17.12.10 070 (В) 3000 м  слаб. ливневой дождь  10/8 100 м кучево-дожд., средняя 
[Cb calv|Ac und]
+1 +0.7 98 -3  1009.3  -0.9  750  301  +0.1       
09 17.12.10 100 (В) 0900 м  слаб. ливневой дождь{туман}  ?/?  
+2.8 +2.8 100 -1  1007.1  -2.1  748  298           
12 17.12.10 090 (В) 11-15{16}  4000 м  в посл. час ливневой дождь{туман}  10/8 120 м кучево-дожд., средняя 
[Cb calv|Ac und]
+3.3 +2.8 97 -1  1004.8  -2.3  747  297           
15 17.12.10 100 (В) 11{15}  4000 м  слаб. ливневой дождь  10/8 180 м кучево-дожд., средняя 
[Cb calv|Ac und]
+3.5 +2.8 95 -1  1003.3  -1.6  746  296           
18 17.12.10 090 (В) 12-16{16}  4000 м  в посл. час ливневой дождь  10/8 60 м кучево-дожд., средняя 
[Cb calv|Ac und]
+2.9 +2.5 97 -2  1004.5  746  297    +3.7     
21 17.12.10 090 (В) 8{16}  4000 м  в посл. час ливневой дождь  9/6 60 м кучево-дожд., средняя 
[Cb calv|Ac trans]
+3.1 +2.7 97 1004  -0.5  746  297           
00 18.12.10 160 (Ю) 3000 м  в посл. час ливневой дождь  10/6 100 м кучево-дожд., средняя 
[Cb calv|Ac und]
+4.5 +4 97 +2  1006.6  2.5  748  296           
03 18.12.10 230 (ЮЗ) 4000 м  в посл. час дождь  10/10 120 м 
[Sc]
+5.6 +4.9 95 +5  1008.1  1.6  749  295           
06 18.12.10 260 (З) 4000 м  дымка{дождь}  9/4 60 м средняя, верхняя 
[Sc|Ac trans|Ci fib]
+4.3 +2.9 91 +4  1009  0.8  750  297  +2.9       
09 18.12.10 320 (СЗ) 10 км    10/6 500 м средняя 
[Sc|Ac und]
+4.3 +1.7 83 +4  1010.1  1.1  751  298           
15 18.12.10 тихо ()   4000 м  слаб. ливневой дождь  10/8 150 м кучево-дожд., средняя 
[Cb calv|As op]
+1.4 +0.6 94 +1  1014.6  2.6  754  302           
18 18.12.10 200 (Ю) 1800 м  дымка{ливн. осадки, дождь}  10/5 150 м средняя 
[Frnb|As op]
+1.1 +0.8 98 1016  1.3  755  303    +5.6     
21 18.12.10 тихо ()   1000 м  в посл. час туман  9/6 100 м средняя 
[St|Ac trans]
-0.9 -0.9 100 -1  1017.2  1.2  756  306           
00 19.12.10 100 (В) 0200 м  туман  10/8 100 м средняя 
[St|Ac trans]
-0.4 -0.4 100 -1  1018.1  0.9  757  305           
03 19.12.10 110 (В) 0100 м  туман [диам. гололёда 4 мм]  ?/?  
-1.1 -1 100 -3  1018  -0.2  756  306           
06 19.12.10 090 (В) 3000 м  в посл. час переохл. осадки (гололёд){туман} [диам. гололёда 4 мм]  9/5 120 м средняя 
[Sc|Ac trans]
+0.2 +0 99 -3  1017.1  0.8  756  304  -2.5    0.4     
09 19.12.10 100 (В) 10 км    8/0 средняя 
[Ac trans]
+1.9 +1.3 96 1015.9  -1.1  755  302           
12 19.12.10 110 (В) 10 км    9/5 450 м средняя 
[Sc|Ac trans]
+4.4 +3.3 93 +2  1014.1  -1.7  754  298           
15 19.12.10 150 (ЮВ) 10 км  в посл. час ливневой дождь  10/6 700 м кучево-дожд., средняя 
[Cb calv|Ac und]
+5.6 +2.8 82 +3  1013.2  -0.9  753  297           
18 19.12.10 260 (З) 7-15{15}  4000 м  слаб. ливневой дождь  10/8 210 м кучево-дожд., средняя 
[Cb calv|Ac und]
+4.5 +3.2 91 +2  1013.3  0.1  753  298    +5.6  0.0     
21 19.12.10 260 (З) 10 км  {ливн. осадки, дождь}  8/6 330 м средняя 
[Sc|Ac trans]
+3 +1.5 90 1016.7  3.3  756  301           
00 20.12.10 280 (З) 4000 м  дымка{ливн. осадки, дождь}  5/5 400 м 
[Sc]
-0.5 -3.3 81 -4  1021.9  759  307           
03 20.12.10 280 (З) 10 км    ясно 
-3.1 -8 69 -7  1024.7  2.7  761  311           
06 20.12.10 260 (З) 10 км    1/0 средняя 
[Ac trans]
-3.1 -6.8 76 -6  1026.9  2.2  763  312  -3.6       
09 20.12.10 240 (ЮЗ) 10 км    ясно 
-0.1 -6.5 62 -1  1027.5  0.7  764  308           
12 20.12.10 180 (Ю) 10 км    ясно 
+0.5 -4.6 69 -1  1026.6  -0.9  763  307           
15 20.12.10 110 (В) 10 км    3/0 средняя 
[Ac trans]
-2.2 -4.2 86 -5  1026.4  -0.3  763  310           
18 20.12.10 100 (В) 4000 м  дымка  4/0 верхняя 
[Ci fib]
-2.9 -4 92 -6  1025.4  -1  762  311    +0.6       
21 20.12.10 100 (В) 4000 м  дымка  10/3 300 м средняя 
[Sc|Ac und]
-0.1 -2.1 86 -3  1023.5  -1.8  761  307           
00 21.12.10 100 (В) 4000 м  дымка  10/5 700 м средняя 
[Sc|Ac und]
+1.9 +0 87 1022.6  -0.8  760  304           
03 21.12.10 150 (ЮВ) 4000 м  слаб. дождь  10/6 630 м средняя 
[Sc|Ac und]
+3.1 +1.9 92 +1  1021.7  -0.8  759  302           
06 21.12.10 160 (Ю) 1800 м  слаб. ливневой дождь  10/6 150 м кучево-дожд., средняя 
[Cb calv|As op]
+3.5 +3 96 +2  1021.3  -0.4  759  302  -3.8    0.4     
09 21.12.10 180 (Ю) 3000 м  слаб. ливневой дождь{туман}  10/8 60 м кучево-дожд., средняя 
[Cb calv|Ac und]
+6 +5.4 96 +6  1020.7  -0.5  759  298           
12 21.12.10 210 (ЮЗ) 3000 м  слаб. ливневой дождь{туман}  10/6 240 м кучево-дожд., средняя 
[Cb calv|As op]
+7.3 +6.2 93 +6  1020  -0.7  758  297           
15 21.12.10 170 (Ю) 3000 м  слаб. ливневой дождь  10/5 240 м кучево-дожд., средняя 
[Cb calv|As op]
+7.7 +6.9 95 +9  1020.7  0.6  759  296           
18 21.12.10 тихо ()   4000 м  дымка{ливн. осадки}  10/6 360 м кучево-дожд., средняя 
[Cb calv|Ac und]
+8.2 +7.3 94 +8  1021.1  0.4  759  296    +7.8  18     
21 21.12.10 090 (В) 0900 м  слаб. ливневой дождь{туман}  10/5 330 м кучево-дожд., средняя 
[Cb calv|Ac und]
+6.9 +6.6 98 +7  1021.5  0.4  759  297           
00 22.12.10 тихо ()   2500 м  дымка{ливн. осадки, туман}  10/4 300 м средняя 
[Sc|Ac und]
+7.8 +7.3 97 +8  1021.5  759  296           
03 22.12.10 230 (ЮЗ) 4000 м  дымка  10/10 300 м 
[Sc]
+8.6 +7.7 94 +9  1021.3  -0.1  759  295           
06 22.12.10 220 (ЮЗ) 0200 м  туман  ?/?  
+8.1 +8.1 100 +7  1022.1  0.7  760  296  +6.9    0.9     
09 22.12.10 260 (З) 0900 м  слаб. морось{туман}  ?/?  
+8.9 +8.9 100 +8  1021.9  -0.1  760  295           
12 22.12.10 280 (З) 4000 м  дымка{морось, туман}  10/10 150 м 
[Sc]
+8.9 +7.9 93 +8  1021.7  -0.2  759  295           
15 22.12.10 тихо ()   0200 м  слаб. морось{туман}  ?/?  
+8.4 +8.4 100 +8  1021.9  0.1  760  295           
18 22.12.10 220 (ЮЗ) 0100 м  туман{морось}  ?/?  
+9.3 +9.2 99 +9  1021.2  -0.6  759  294    +9.2  0.0     
21 22.12.10 230 (ЮЗ) 1800 м  в посл. час туман  10/10 120 м 
[St]
+9.7 +9.5 99 +9  1020.9  -0.3  759  294           
00 23.12.10 240 (ЮЗ) 3000 м  дымка{туман}  10/10 180 м 
[St]
+9.9 +9.3 96 +9  1020.5  -0.4  759  293           
03 23.12.10 240 (ЮЗ) 0400 м  туман  ?/?  
+8.2 +8.2 100 +8  1020.2  -0.3  758  295           
06 23.12.10 230 (ЮЗ) 1500 м  дымка{туман}  10/8 100 м средняя 
[Sc|Ac und]
+8.6 +8.2 97 +9  1020.5  0.3  759  295  +8.2         
09 23.12.10 230 (ЮЗ) 1500 м  дымка{морось, туман}  10/10 100 м 
[St]
+9.9 +9.5 97 +9  1020.4  -0.1  758  293           
12 23.12.10 230 (ЮЗ) 0900 м  туман  ?/?  
+9.7 +9.3 97 +9  1019.5  -0.9  758  293           
15 23.12.10 200 (Ю) 0100 м  туман  ?/?  
+8.7 +8.7 100 +9  1019.7  0.2  758  294           
18 23.12.10 170 (Ю) <0100 м  туман  ?/?  
+8.1 +8.1 100 +8  1019.6  -0.1  758  295    +10.1  0.0     
21 23.12.10 120 (ЮВ) 0100 м  туман  ?/?  
+6 +6 100 +7  1019.4  -0.3  758  298           
00 24.12.10 тихо ()   0400 м  туман  ясно 
+5.8 +5.6 99 +6  1019.2  -0.2  758  298           
03 24.12.10 080 (В) 0600 м  туман  ясно 
+2.9 +2.9 100 +2  1018.9  -0.4  757  301           
06 24.12.10 060 (СВ) 2500 м  в посл. час туман  5/0 верхняя 
[Ci fib]
+2.3 +2 98 +1  1019.3  0.4  758  302  +1.6         
09 24.12.10 100 (В) 4000 м  дымка  3/3 100 м 
[St]
+7.3 +6.3 93 +7  1018.6  -0.6  757  296           
12 24.12.10 090 (В) 4000 м  туман местами  1/1 100 м 
[St]
+7.3 +6 91 +7  1017.9  -0.7  757  296           
15 24.12.10 080 (В) 2000 м  в посл. час туман  3/3 100 м 
[St]
+5.8 +5.5 98 +5  1017.8  -0.1  756  298           
18 24.12.10 060 (СВ) 0500 м  туман  ясно 
+3.4 +3.2 99 +3  1017.3  -0.6  756  300    +9       
21 24.12.10 100 (В) 0200 м  туман  ясно 
+2.9 +2.8 99 +2  1017.4  0.1  756  301           
00 25.12.10 080 (В) 0500 м  туман  ясно 
+0.8 +0.8 100 -1  1017.7  0.2  756  304           
03 25.12.10 100 (В) 3000 м  дымка{туман}  ясно 
-0.2 -0.4 99 -1  1017.6  -0.1  756  305           
06 25.12.10 090 (В) 0600 м  туман  ?/?  
-0.1 -0.1 100 -3  1017.9  0.3  756  305  -0.2         
09 25.12.10 080 (В) 0200 м  туман [диам. изморози 1 мм]  ?/?  
+1.1 +1.1 100 -1  1017.5  -0.4  756  303           
12 25.12.10 080 (В) 0300 м  туман  ?/?  
+2.6 +2.6 100 1016.2  -1.2  755  301           
15 25.12.10 090 (В) 0100 м  туман  ?/?  
+2.6 +2.6 100 1015.9  -0.3  755  301           
18 25.12.10 090 (В) 0300 м  туман  ?/?  
+2 +2 100 -1  1014.4  -1.5  754  301    +3.1       
21 25.12.10 090 (В) 0100 м  туман  ?/?  
+1.3 +1.3 100 -2  1014.1  -0.3  754  302           
00 26.12.10 100 (В) 0100 м  туман  ?/?  
+0.9 +0.9 100 -2  1013.7  -0.4  753  302           
03 26.12.10 100 (В) 0100 м  туман  ?/?  
+0.4 +0.4 100 -3  1012.8  -1  753  303           
06 26.12.10 090 (В) 0800 м  туман  9/6 60 м верхняя 
[St|Ci fib]
+0.4 +0.4 100 -2  1013.1  0.3  753  303  -0.1         
09 26.12.10 110 (В) 4000 м  дымка{туман}  10/0 средняя 
[Ac und]
+3.6 +2.5 93 +2  1013.1  0.2  753  299           
12 26.12.10 080 (В) 10 км  {туман}  10/4 1000 м кучево-дожд., средняя 
[Cb calv|Ac und]
+6.1 +4.6 90 +5  1012.9  -0.2  753  296           
15 26.12.10 200 (Ю) 10 км    9/3 1000 м кучево-дожд., средняя, верхняя 
[Cb calv|Ac trans|Ci fib]
+8.5 +5.7 83 +9  1013.6  0.8  753  293           
18 26.12.10 250 (З) 10 км    9/0 средняя 
[Ac trans]
+9.4 +7.2 86 +9  1014.3  0.7  754  292    +8.5       
21 26.12.10 250 (З) 10 км    10/6 180 м средняя 
[Sc|Ac und]
+9.9 +8.8 93 +9  1015.1  0.9  755  292           
00 27.12.10 270 (З) 0900 м  туман{дождь}  ?/?  
+8.8 +8.4 97 +8  1015.7  0.5  755  293           
03 27.12.10 240 (ЮЗ) 0200 м  туман  ?/?  
+7.1 +7.1 100 +7  1016.3  0.6  755  295           
06 27.12.10 220 (ЮЗ) 0300 м  слаб. морось{туман}  ?/?  
+5.9 +5.9 100 +6  1017.7  1.3  756  297  +5.9    0.5     
09 27.12.10 250 (З) 0900 м  туман{морось}  ?/?  
+7 +7 100 +7  1018.5  0.8  757  296           
12 27.12.10 тихо ()   4000 м  дымка{ливн. осадки, дождь}  10/8 210 м кучево-дожд., средняя 
[Cb calv|Ac und]
+6.7 +6.4 98 +7  1018.3  -0.2  757  297           
15 27.12.10 210 (ЮЗ) 1500 м  слаб. ливневой дождь  10/8 30 м кучево-дожд., средняя 
[Cb calv|Ac und]
+6.4 +6 97 +7  1018.9  0.6  757  297           
18 27.12.10 350 (С) 1900 м  ливневой дождь  10/8 60 м кучево-дожд., средняя 
[Cb calv|Ac und]
+6.9 +6.4 97 +6  1019.2  0.3  758  297    +7.1     
21 27.12.10 020 (С) 3000 м  слаб. ливневой дождь  10/6 100 м кучево-дожд., средняя 
[Cb calv|Ac und]
+6.3 +5.7 96 +6  1019.7  0.5  758  298           
00 28.12.10 050 (СВ) 1200 м  в посл. час ливневой дождь  10/8 60 м кучево-дожд., средняя 
[Cb calv|Ac und]
+6.2 +5.8 97 +5  1019.4  -0.3  758  298           
03 28.12.10 040 (СВ) 0300 м  туман{морось}  ?/?  
+4.8 +4.8 100 +3  1019.2  -0.3  757  299           
06 28.12.10 070 (В) 0200 м  туман{морось}  ?/?  
+4.8 +4.8 100 +3  1018.7  -0.5  757  299  +4.7       
09 28.12.10 070 (В) 0100 м  туман  ?/?  
+5.7 +5.7 100 +4  1018.2  -0.4  757  298           
12 28.12.10 090 (В) 0100 м  в посл. час ливневой дождь  ?/?  
+7 +7 100 +5  1016.6  -1.6  756  296           
15 28.12.10 090 (В) 0700 м  туман  ?/?  
+7.8 +7.6 99 +6  1014.9  -1.6  754  294           
18 28.12.10 090 (В) 4000 м  дымка{туман}  9/5 150 м средняя 
[St|Ac und]
+8.2 +8 99 +7  1014.4  -0.5  754  294    +8.1  0.6     
21 28.12.10 090 (В) 4000 м  дымка  10/6 200 м средняя 
[Sc|Ac und]
+8.1 +7 93 +7  1014.4  754  294           
00 29.12.10 090 (В) 4000 м  дымка{дождь}  10/5 450 м средняя 
[Sc|Ac und]
+7.7 +6.2 90 +5  1012.2  -2  752  294           
03 29.12.10 090 (В) 3000 м  дымка{дождь}  9/5 400 м средняя 
[Sc|Ac trans]
+5.1 +4.5 96 +4  1012.8  0.7  753  297           
06 29.12.10 110 (В) 2500 м  дымка{дождь}  10/8 180 м средняя 
[St|Ac und]
+5 +4.5 97 +4  1014.2  1.4  754  298  +4.2    0.0     
09 29.12.10 280 (З) 2500 м  дымка{туман}  10/10 120 м 
[St]
+6.7 +5.8 94 +5  1016.9  2.7  756  296           
12 29.12.10 270 (З) 4000 м  дымка{туман}  10/10 210 м 
[St]
+6 +4.3 89 +4  1018.8  1.9  757  298           
15 29.12.10 280 (З) 4000 м  дымка  9/6 450 м средняя 
[St|Ac cuf]
+4.4 +3 91 +3  1020.8  1.9  759  300           
18 29.12.10 300 (СЗ) 4000 м  дымка  10/10 180 м 
[St]
+3.5 +2.2 91 +2  1022.3  1.5  760  302    +7.1       
21 29.12.10 310 (СЗ) 4000 м  дымка{ливн. осадки}  10/8 150 м кучево-дожд., средняя 
[Cb calv|Ac und]
+1.9 +0.7 92 +1  1024.1  1.7  761  304           
00 30.12.10 340 (С) 4000 м  дымка{ливн. осадки}  10/6 180 м кучево-дожд., средняя 
[Cb calv|Ac und]
+1.6 +0.5 92 +1  1024.4  0.3  761  305           
03 30.12.10 040 (СВ) 4000 м  дымка  10/6 180 м средняя 
[St|Ac und]
+1.9 +0.4 90 1023.6  -0.8  761  304           
06 30.12.10 360 (С) 4000 м  дымка  10/8 210 м кучево-дожд., средняя 
[Cb calv|Ac und]
+1.3 +0 91 1024.3  0.7  761  305  +1.3    0.3     
09 30.12.10 340 (С) 4000 м  дымка  10/5 200 м средняя 
[Sc|Ac und]
+1.7 +0.2 90 1022.8  -1.5  760  304           
12 30.12.10 340 (С) 3000 м  слаб. ливневой дождь  10/8 150 м кучево-дожд., средняя 
[Cb calv|Ac und]
+1.1 +0.3 94 1021.5  -1.3  759  305           
15 30.12.10 320 (СЗ) 2500 м  слаб. ливневой дождь со снегом  10/8 120 м кучево-дожд., средняя 
[Cb calv|Ac und]
+0.8 +0.3 96 1021.8  0.3  759  305           
18 30.12.10 300 (СЗ) 2000 м  слаб. ливневой дождь со снегом  10/8 100 м кучево-дожд., средняя 
[Cb calv|Ac und]
+0.4 +0 97 -1  1021.6  -0.2  759  305    +1.9     
21 30.12.10 310 (СЗ) 4000 м  дымка{ливн. осадки}  9/6 120 м кучево-дожд., средняя 
[Cb calv|Ac und]
-1.2 -1.9 95 -3  1022.1  0.4  759  308           
00 31.12.10 320 (СЗ) 4000 м  дымка{ливн. осадки}  9/8 210 м средняя 
[St|Ac und]
-2 -3 93 -3  1023.3  1.2  760  309           
03 31.12.10 320 (СЗ) 2500 м  дымка  9/6 180 м средняя 
[St|Ac trans]
-3.9 -4.9 93 -6  1023.7  0.3  761  311           
06 31.12.10 300 (СЗ) 3000 м  дымка  9/0 верхняя 
[Ci fib]
-4.4 -5.9 89 -6  1024.6  0.9  761  312  -5       
09 31.12.10 340 (С) 10 км    9/0 средняя, верхняя 
[Ac trans|Ci fib]
-2.6 -7 72 -4  1024.8  0.2  761  311           
12 31.12.10 330 (СЗ) 10 км    6/0 средняя, верхняя 
[Ac trans|Ci fib]
-2.2 -7.1 69 -4  1023.7  -1.1  761  310           
15 31.12.10 тихо ()   10 км    6/0 средняя, верхняя 
[Ac trans|Ci fib]
-4 -7.4 77 -4  1023.4  -0.3  760  312           
18 31.12.10 тихо ()   4000 м  дымка  6/0 средняя, верхняя 
[Ac trans|Ci fib]
-4.9 -6.4 89 -5  1022.7  -0.7  760  312    -2       
21 31.12.10 тихо ()   2500 м  дымка  4/0 верхняя 
[Ci fib]
-5.3 -6 95 -5  1022  -0.7  759  313           
00 01.01.11 тихо ()   0900 м  переохл. туман [диам. изморози 1 мм]  4/0 верхняя 
[Ci fib]
-5.8 -6 98 -6  1021.3  -0.8  759  313           
03 01.01.11 тихо ()   0900 м  переохл. туман [диам. изморози 2 мм]  4/0 верхняя 
[Ci fib]
-8.2 -8.5 98 -8  1020.5  -0.8  758  316           
06 01.01.11 210 (ЮЗ) 2500 м  дымка{туман} [диам. изморози 3 мм]  4/0 верхняя 
[Ci fib]
-5.8 -6.2 97 -5  1021.1  0.6  759  313  -9.5         
Время (UTC), дата Ветер
(°,м/с) 
Видим.   Явления Облачность Т
(°С)
Тd
(°С)
f(%) Тe
(°С)
Pmin
(гПа)
dP
(гПа)
Po
(мм)
O2
(г/м3)
Тmin Tmax R s Состояние
почвы